Year,Month,Day,Hour,Minute,Value (Times are PST for temperature in C)
2020,04,21,00,00,12.10
2020,04,21,00,01,12.10
2020,04,21,00,02,12.10
2020,04,21,00,03,12.10
2020,04,21,00,04,12.10
2020,04,21,00,05,12.10
2020,04,21,00,06,12.10
2020,04,21,00,07,12.10
2020,04,21,00,08,12.10
2020,04,21,00,09,12.10
2020,04,21,00,10,12.10
2020,04,21,00,11,12.00
2020,04,21,00,12,12.00
2020,04,21,00,13,12.00
2020,04,21,00,14,12.00
2020,04,21,00,15,12.00
2020,04,21,00,16,12.00
2020,04,21,00,17,12.00
2020,04,21,00,18,11.90
2020,04,21,00,19,11.90
2020,04,21,00,20,11.90
2020,04,21,00,21,11.90
2020,04,21,00,22,11.90
2020,04,21,00,23,11.90
2020,04,21,00,24,11.90
2020,04,21,00,25,11.80
2020,04,21,00,26,11.80
2020,04,21,00,27,11.80
2020,04,21,00,28,11.80
2020,04,21,00,29,11.80
2020,04,21,00,30,11.80
2020,04,21,00,31,11.80
2020,04,21,00,32,11.80
2020,04,21,00,33,11.80
2020,04,21,00,34,11.80
2020,04,21,00,35,11.80
2020,04,21,00,36,11.80
2020,04,21,00,37,11.70
2020,04,21,00,38,11.70
2020,04,21,00,39,11.70
2020,04,21,00,40,11.70
2020,04,21,00,41,11.60
2020,04,21,00,42,11.60
2020,04,21,00,43,11.50
2020,04,21,00,44,11.50
2020,04,21,00,45,11.40
2020,04,21,00,46,11.40
2020,04,21,00,47,11.30
2020,04,21,00,48,11.30
2020,04,21,00,49,11.30
2020,04,21,00,50,11.30
2020,04,21,00,51,11.30
2020,04,21,00,52,11.30
2020,04,21,00,53,11.30
2020,04,21,00,54,11.30
2020,04,21,00,55,11.30
2020,04,21,00,56,11.30
2020,04,21,00,57,11.30
2020,04,21,00,58,11.30
2020,04,21,00,59,11.30
2020,04,21,01,00,11.30
2020,04,21,01,01,11.30
2020,04,21,01,02,11.30
2020,04,21,01,03,11.30
2020,04,21,01,04,11.30
2020,04,21,01,05,11.30
2020,04,21,01,06,11.30
2020,04,21,01,07,11.30
2020,04,21,01,08,11.30
2020,04,21,01,09,11.30
2020,04,21,01,10,11.40
2020,04,21,01,11,11.40
2020,04,21,01,12,11.40
2020,04,21,01,13,11.40
2020,04,21,01,14,11.40
2020,04,21,01,15,11.40
2020,04,21,01,16,11.40
2020,04,21,01,17,11.40
2020,04,21,01,18,11.30
2020,04,21,01,19,11.30
2020,04,21,01,20,11.30
2020,04,21,01,21,11.30
2020,04,21,01,22,11.30
2020,04,21,01,23,11.30
2020,04,21,01,24,11.30
2020,04,21,01,25,11.30
2020,04,21,01,26,11.30
2020,04,21,01,27,11.30
2020,04,21,01,28,11.30
2020,04,21,01,29,11.30
2020,04,21,01,30,11.30
2020,04,21,01,31,11.30
2020,04,21,01,32,11.30
2020,04,21,01,33,11.30
2020,04,21,01,34,11.30
2020,04,21,01,35,11.30
2020,04,21,01,36,11.30
2020,04,21,01,37,11.30
2020,04,21,01,38,11.30
2020,04,21,01,39,11.30
2020,04,21,01,40,11.30
2020,04,21,01,41,11.30
2020,04,21,01,42,11.30
2020,04,21,01,43,11.30
2020,04,21,01,44,11.30
2020,04,21,01,45,11.30
2020,04,21,01,46,11.30
2020,04,21,01,47,11.30
2020,04,21,01,48,11.30
2020,04,21,01,49,11.30
2020,04,21,01,50,11.30
2020,04,21,01,51,11.30
2020,04,21,01,52,11.30
2020,04,21,01,53,11.30
2020,04,21,01,54,11.30
2020,04,21,01,55,11.30
2020,04,21,01,56,11.30
2020,04,21,01,57,11.30
2020,04,21,01,58,11.30
2020,04,21,01,59,11.30
2020,04,21,02,00,11.30
2020,04,21,02,01,11.30
2020,04,21,02,02,11.30
2020,04,21,02,03,11.30
2020,04,21,02,04,11.30
2020,04,21,02,05,11.30
2020,04,21,02,06,11.30
2020,04,21,02,07,11.30
2020,04,21,02,08,11.30
2020,04,21,02,09,11.30
2020,04,21,02,10,11.20
2020,04,21,02,11,11.30
2020,04,21,02,12,11.30
2020,04,21,02,13,11.30
2020,04,21,02,14,11.30
2020,04,21,02,15,11.30
2020,04,21,02,16,11.30
2020,04,21,02,17,11.20
2020,04,21,02,18,11.30
2020,04,21,02,19,11.30
2020,04,21,02,20,11.20
2020,04,21,02,21,11.20
2020,04,21,02,22,11.20
2020,04,21,02,23,11.20
2020,04,21,02,24,11.20
2020,04,21,02,25,11.20
2020,04,21,02,26,11.20
2020,04,21,02,27,11.20
2020,04,21,02,28,11.20
2020,04,21,02,29,11.20
2020,04,21,02,30,11.20
2020,04,21,02,31,11.20
2020,04,21,02,32,11.20
2020,04,21,02,33,11.20
2020,04,21,02,34,11.10
2020,04,21,02,35,11.10
2020,04,21,02,36,11.10
2020,04,21,02,37,11.10
2020,04,21,02,38,11.10
2020,04,21,02,39,11.10
2020,04,21,02,40,11.10
2020,04,21,02,41,11.10
2020,04,21,02,42,11.10
2020,04,21,02,43,11.10
2020,04,21,02,44,11.10
2020,04,21,02,45,11.10
2020,04,21,02,46,11.10
2020,04,21,02,47,11.10
2020,04,21,02,48,11.10
2020,04,21,02,49,11.10
2020,04,21,02,50,11.00
2020,04,21,02,51,11.00
2020,04,21,02,52,11.00
2020,04,21,02,53,10.90
2020,04,21,02,54,10.90
2020,04,21,02,55,10.90
2020,04,21,02,56,10.90
2020,04,21,02,57,10.90
2020,04,21,02,58,10.90
2020,04,21,02,59,10.90
2020,04,21,03,00,10.90
2020,04,21,03,01,10.90
2020,04,21,03,02,10.90
2020,04,21,03,03,10.90
2020,04,21,03,04,10.90
2020,04,21,03,05,10.80
2020,04,21,03,06,10.90
2020,04,21,03,07,10.90
2020,04,21,03,08,10.90
2020,04,21,03,09,10.80
2020,04,21,03,10,10.80
2020,04,21,03,11,10.80
2020,04,21,03,12,10.80
2020,04,21,03,13,10.80
2020,04,21,03,14,10.80
2020,04,21,03,15,10.80
2020,04,21,03,16,10.80
2020,04,21,03,17,10.80
2020,04,21,03,18,10.80
2020,04,21,03,19,10.70
2020,04,21,03,20,10.70
2020,04,21,03,21,10.70
2020,04,21,03,22,10.70
2020,04,21,03,23,10.70
2020,04,21,03,24,10.70
2020,04,21,03,25,10.70
2020,04,21,03,26,10.70
2020,04,21,03,27,10.70
2020,04,21,03,28,10.70
2020,04,21,03,29,10.70
2020,04,21,03,30,10.70
2020,04,21,03,31,10.70
2020,04,21,03,32,10.60
2020,04,21,03,33,10.60
2020,04,21,03,34,10.60
2020,04,21,03,35,10.60
2020,04,21,03,36,10.60
2020,04,21,03,37,10.60
2020,04,21,03,38,10.60
2020,04,21,03,39,10.60
2020,04,21,03,40,10.60
2020,04,21,03,41,10.60
2020,04,21,03,42,10.60
2020,04,21,03,43,10.60
2020,04,21,03,44,10.60
2020,04,21,03,45,10.60
2020,04,21,03,46,10.60
2020,04,21,03,47,10.60
2020,04,21,03,48,10.60
2020,04,21,03,49,10.60
2020,04,21,03,50,10.60
2020,04,21,03,51,10.60
2020,04,21,03,52,10.60
2020,04,21,03,53,10.60
2020,04,21,03,54,10.60
2020,04,21,03,55,10.60
2020,04,21,03,56,10.60
2020,04,21,03,57,10.60
2020,04,21,03,58,10.60
2020,04,21,03,59,10.60
2020,04,21,04,00,10.60
2020,04,21,04,01,10.60
2020,04,21,04,02,10.60
2020,04,21,04,03,10.60
2020,04,21,04,04,10.60
2020,04,21,04,05,10.60
2020,04,21,04,06,10.60
2020,04,21,04,07,10.60
2020,04,21,04,08,10.60
2020,04,21,04,09,10.60
2020,04,21,04,10,10.60
2020,04,21,04,11,10.60
2020,04,21,04,12,10.50
2020,04,21,04,13,10.50
2020,04,21,04,14,10.50
2020,04,21,04,15,10.60
2020,04,21,04,16,10.60
2020,04,21,04,17,10.50
2020,04,21,04,18,10.50
2020,04,21,04,19,10.50
2020,04,21,04,20,10.50
2020,04,21,04,21,10.50
2020,04,21,04,22,10.50
2020,04,21,04,23,10.50
2020,04,21,04,24,10.50
2020,04,21,04,25,10.50
2020,04,21,04,26,10.50
2020,04,21,04,27,10.50
2020,04,21,04,28,10.50
2020,04,21,04,29,10.50
2020,04,21,04,30,10.50
2020,04,21,04,31,10.50
2020,04,21,04,32,10.50
2020,04,21,04,33,10.50
2020,04,21,04,34,10.50
2020,04,21,04,35,10.50
2020,04,21,04,36,10.40
2020,04,21,04,37,10.40
2020,04,21,04,38,10.40
2020,04,21,04,39,10.40
2020,04,21,04,40,10.40
2020,04,21,04,41,10.40
2020,04,21,04,42,10.40
2020,04,21,04,43,10.40
2020,04,21,04,44,10.40
2020,04,21,04,45,10.40
2020,04,21,04,46,10.40
2020,04,21,04,47,10.40
2020,04,21,04,48,10.40
2020,04,21,04,49,10.40
2020,04,21,04,50,10.40
2020,04,21,04,51,10.40
2020,04,21,04,52,10.40
2020,04,21,04,53,10.40
2020,04,21,04,54,10.40
2020,04,21,04,55,10.40
2020,04,21,04,56,10.40
2020,04,21,04,57,10.40
2020,04,21,04,58,10.40
2020,04,21,04,59,10.40
2020,04,21,05,00,10.40
2020,04,21,05,01,10.40
2020,04,21,05,02,10.40
2020,04,21,05,03,10.40
2020,04,21,05,04,10.40
2020,04,21,05,05,10.40
2020,04,21,05,06,10.40
2020,04,21,05,07,10.40
2020,04,21,05,08,10.40
2020,04,21,05,09,10.40
2020,04,21,05,10,10.40
2020,04,21,05,11,10.40
2020,04,21,05,12,10.40
2020,04,21,05,13,10.40
2020,04,21,05,14,10.40
2020,04,21,05,15,10.30
2020,04,21,05,16,10.30
2020,04,21,05,17,10.30
2020,04,21,05,18,10.30
2020,04,21,05,19,10.30
2020,04,21,05,20,10.30
2020,04,21,05,21,10.30
2020,04,21,05,22,10.30
2020,04,21,05,23,10.30
2020,04,21,05,24,10.30
2020,04,21,05,25,10.30
2020,04,21,05,26,10.30
2020,04,21,05,27,10.30
2020,04,21,05,28,10.30
2020,04,21,05,29,10.30
2020,04,21,05,30,10.30
2020,04,21,05,31,10.30
2020,04,21,05,32,10.30
2020,04,21,05,33,10.30
2020,04,21,05,34,10.30
2020,04,21,05,35,10.30
2020,04,21,05,36,10.30
2020,04,21,05,37,10.30
2020,04,21,05,38,10.30
2020,04,21,05,39,10.30
2020,04,21,05,40,10.30
2020,04,21,05,41,10.30
2020,04,21,05,42,10.30
2020,04,21,05,43,10.30
2020,04,21,05,44,10.30
2020,04,21,05,45,10.30
2020,04,21,05,46,10.30
2020,04,21,05,47,10.30
2020,04,21,05,48,10.30
2020,04,21,05,49,10.30
2020,04,21,05,50,10.40
2020,04,21,05,51,10.40
2020,04,21,05,52,10.30
2020,04,21,05,53,10.40
2020,04,21,05,54,10.40
2020,04,21,05,55,10.40
2020,04,21,05,56,10.40
2020,04,21,05,57,10.40
2020,04,21,05,58,10.40
2020,04,21,05,59,10.40
2020,04,21,06,00,10.40
2020,04,21,06,01,10.40
2020,04,21,06,02,10.40
2020,04,21,06,03,10.40
2020,04,21,06,04,10.40
2020,04,21,06,05,10.40
2020,04,21,06,06,10.40
2020,04,21,06,07,10.40
2020,04,21,06,08,10.40
2020,04,21,06,09,10.40
2020,04,21,06,10,10.40
2020,04,21,10,25,11.50
2020,04,21,10,26,11.50
2020,04,21,10,27,11.50
2020,04,21,10,28,11.50
2020,04,21,10,29,11.60
2020,04,21,10,30,11.60
2020,04,21,10,31,11.70
2020,04,21,10,32,11.70
2020,04,21,10,33,11.70
2020,04,21,10,34,11.70
2020,04,21,10,35,11.80
2020,04,21,10,36,11.80
2020,04,21,10,37,11.80
2020,04,21,10,38,11.80
2020,04,21,10,39,11.80
2020,04,21,10,40,11.80
2020,04,21,10,41,11.90
2020,04,21,10,42,11.90
2020,04,21,10,43,11.90
2020,04,21,10,44,11.90
2020,04,21,10,45,11.90
2020,04,21,10,46,11.90
2020,04,21,10,47,12.00
2020,04,21,10,48,11.90
2020,04,21,10,49,12.00
2020,04,21,10,50,12.00
2020,04,21,10,51,12.10
2020,04,21,10,52,12.10
2020,04,21,10,53,12.10
2020,04,21,10,54,12.10
2020,04,21,10,55,12.10
2020,04,21,10,56,12.10
2020,04,21,10,57,12.10
2020,04,21,10,58,12.20
2020,04,21,10,59,12.20
2020,04,21,11,00,12.30
2020,04,21,11,01,12.30
2020,04,21,11,02,12.30
2020,04,21,11,03,12.40
2020,04,21,11,04,12.40
2020,04,21,11,05,12.40
2020,04,21,11,06,12.40
2020,04,21,11,07,12.40
2020,04,21,11,08,12.40
2020,04,21,11,09,12.40
2020,04,21,11,10,12.30
2020,04,21,11,11,12.30
2020,04,21,11,12,12.30
2020,04,21,11,13,12.30
2020,04,21,11,14,12.10
2020,04,21,11,15,12.00
2020,04,21,11,16,12.00
2020,04,21,11,17,12.00
2020,04,21,11,18,11.90
2020,04,21,11,19,11.90
2020,04,21,11,20,11.90
2020,04,21,11,21,11.90
2020,04,21,11,22,11.80
2020,04,21,11,23,11.70
2020,04,21,11,24,11.70
2020,04,21,11,25,11.70
2020,04,21,11,26,11.70
2020,04,21,11,27,11.70
2020,04,21,11,28,11.80
2020,04,21,11,29,11.80
2020,04,21,11,30,11.80
2020,04,21,11,31,11.80
2020,04,21,11,32,11.80
2020,04,21,11,33,11.80
2020,04,21,11,34,11.80
2020,04,21,11,35,11.80
2020,04,21,11,36,11.80
2020,04,21,11,37,11.70
2020,04,21,11,38,11.70
2020,04,21,11,39,11.80
2020,04,21,11,40,11.80
2020,04,21,11,41,11.80
2020,04,21,11,42,11.80
2020,04,21,11,43,11.80
2020,04,21,11,44,11.80
2020,04,21,11,45,11.90
2020,04,21,11,46,11.90
2020,04,21,11,47,11.80
2020,04,21,11,48,11.80
2020,04,21,11,49,11.80
2020,04,21,11,50,11.90
2020,04,21,11,51,11.90
2020,04,21,11,52,11.90
2020,04,21,11,53,12.00
2020,04,21,11,54,12.00
2020,04,21,11,55,12.00
2020,04,21,11,56,12.00
2020,04,21,11,57,12.00
2020,04,21,11,58,11.90
2020,04,21,11,59,11.90
2020,04,21,12,00,11.90
2020,04,21,12,01,11.90
2020,04,21,12,02,11.90
2020,04,21,12,03,11.80
2020,04,21,12,04,11.80
2020,04,21,12,05,11.80
2020,04,21,12,06,11.80
2020,04,21,12,07,11.80
2020,04,21,12,08,11.80
2020,04,21,12,09,11.80
2020,04,21,12,10,11.80
2020,04,21,12,11,11.80
2020,04,21,12,12,11.90
2020,04,21,12,13,11.90
2020,04,21,12,14,11.90
2020,04,21,12,15,11.90
2020,04,21,12,16,11.90
2020,04,21,12,17,11.90
2020,04,21,12,18,11.90
2020,04,21,12,19,11.90
2020,04,21,12,20,11.90
2020,04,21,12,21,11.90
2020,04,21,12,22,11.90
2020,04,21,12,23,11.90
2020,04,21,12,24,11.90
2020,04,21,12,25,11.90
2020,04,21,12,26,11.90
2020,04,21,12,27,11.90
2020,04,21,12,28,11.90
2020,04,21,12,29,11.80
2020,04,21,12,30,11.80
2020,04,21,12,31,11.80
2020,04,21,12,32,11.80
2020,04,21,12,33,11.90
2020,04,21,12,34,11.90
2020,04,21,12,35,11.90
2020,04,21,12,36,11.90
2020,04,21,12,37,11.90
2020,04,21,12,38,11.90
2020,04,21,12,39,11.90
2020,04,21,12,40,11.90
2020,04,21,12,41,11.90
2020,04,21,12,42,11.90
2020,04,21,12,43,11.90
2020,04,21,12,44,11.90
2020,04,21,12,45,11.90
2020,04,21,12,46,11.80
2020,04,21,12,47,11.80
2020,04,21,12,48,11.80
2020,04,21,12,49,11.80
2020,04,21,12,50,11.80
2020,04,21,12,51,11.80
2020,04,21,12,52,11.80
2020,04,21,12,53,11.80
2020,04,21,12,54,11.80
2020,04,21,12,55,11.80
2020,04,21,12,56,11.80
2020,04,21,12,57,11.80
2020,04,21,12,58,11.80
2020,04,21,12,59,11.80
2020,04,21,13,00,11.80
2020,04,21,13,01,11.80
2020,04,21,13,02,11.80
2020,04,21,13,03,11.90
2020,04,21,13,04,11.80
2020,04,21,13,05,11.80
2020,04,21,13,06,11.80
2020,04,21,13,07,11.80
2020,04,21,13,08,11.80
2020,04,21,13,09,11.80
2020,04,21,13,10,11.80
2020,04,21,13,11,11.80
2020,04,21,13,12,11.90
2020,04,21,13,13,11.90
2020,04,21,13,14,11.90
2020,04,21,13,15,11.90
2020,04,21,13,16,11.90
2020,04,21,13,17,11.90
2020,04,21,13,18,11.90
2020,04,21,13,19,12.00
2020,04,21,13,20,12.00
2020,04,21,13,21,12.00
2020,04,21,13,22,12.00
2020,04,21,13,23,12.10
2020,04,21,13,24,12.10
2020,04,21,13,25,12.10
2020,04,21,13,26,12.10
2020,04,21,13,27,12.10
2020,04,21,13,28,12.10
2020,04,21,13,29,12.10
2020,04,21,13,30,12.10
2020,04,21,13,31,12.10
2020,04,21,13,32,12.10
2020,04,21,13,33,12.10
2020,04,21,13,34,12.10
2020,04,21,13,35,12.00
2020,04,21,13,36,12.00
2020,04,21,13,37,12.00
2020,04,21,13,38,12.00
2020,04,21,13,39,12.00
2020,04,21,13,40,12.00
2020,04,21,13,41,11.90
2020,04,21,13,42,11.90
2020,04,21,13,43,11.90
2020,04,21,13,44,11.90
2020,04,21,13,45,12.00
2020,04,21,13,46,12.00
2020,04,21,13,47,12.00
2020,04,21,13,48,12.10
2020,04,21,13,49,12.10
2020,04,21,13,50,12.00
2020,04,21,13,51,12.00
2020,04,21,13,52,12.00
2020,04,21,13,53,12.10
2020,04,21,13,54,12.10
2020,04,21,13,55,12.10
2020,04,21,13,56,12.00
2020,04,21,13,57,12.10
2020,04,21,13,58,12.10
2020,04,21,13,59,12.10
2020,04,21,14,00,12.10
2020,04,21,14,01,12.10
2020,04,21,14,02,12.10
2020,04,21,14,03,12.10
2020,04,21,14,04,12.10
2020,04,21,14,05,12.10
2020,04,21,14,06,12.10
2020,04,21,14,07,12.10
2020,04,21,14,08,12.10
2020,04,21,14,09,12.10
2020,04,21,14,10,12.10
2020,04,21,14,11,12.10
2020,04,21,14,12,12.10
2020,04,21,14,13,12.10
2020,04,21,14,14,12.10
2020,04,21,14,15,12.10
2020,04,21,14,16,12.10
2020,04,21,14,17,12.00
2020,04,21,14,18,12.00
2020,04,21,14,19,12.00
2020,04,21,14,20,12.00
2020,04,21,14,21,12.00
2020,04,21,14,22,12.00
2020,04,21,14,23,12.00
2020,04,21,14,24,11.90
2020,04,21,14,25,12.00
2020,04,21,14,26,11.90
2020,04,21,14,27,11.90
2020,04,21,14,28,11.90
2020,04,21,14,29,11.90
2020,04,21,14,30,11.90
2020,04,21,14,31,11.90
2020,04,21,14,32,11.90
2020,04,21,14,33,11.90
2020,04,21,14,34,11.90
2020,04,21,14,35,11.80
2020,04,21,14,36,11.80
2020,04,21,14,37,11.90
2020,04,21,14,38,11.90
2020,04,21,14,39,11.90
2020,04,21,14,40,11.90
2020,04,21,14,41,11.90
2020,04,21,14,42,11.90
2020,04,21,14,43,11.90
2020,04,21,14,44,11.90
2020,04,21,14,45,11.90
2020,04,21,14,46,11.90
2020,04,21,14,47,11.90
2020,04,21,14,48,11.90
2020,04,21,14,49,11.90
2020,04,21,14,50,11.90
2020,04,21,14,51,11.90
2020,04,21,14,52,11.80
2020,04,21,14,53,11.80
2020,04,21,14,54,11.80
2020,04,21,14,55,11.80
2020,04,21,14,56,11.70
2020,04,21,14,57,11.70
2020,04,21,14,58,11.70
2020,04,21,14,59,11.70
2020,04,21,15,00,11.60
2020,04,21,15,01,11.60
2020,04,21,15,02,11.60
2020,04,21,15,03,11.50
2020,04,21,15,04,11.50
2020,04,21,15,05,11.50
2020,04,21,15,06,11.40
2020,04,21,15,07,11.40
2020,04,21,15,08,11.40
2020,04,21,15,09,11.50
2020,04,21,15,10,11.60
2020,04,21,15,11,11.60
2020,04,21,15,12,11.60
2020,04,21,15,13,11.60
2020,04,21,15,14,11.60
2020,04,21,15,15,11.60
2020,04,21,15,16,11.60
2020,04,21,15,17,11.60
2020,04,21,15,18,11.60
2020,04,21,15,19,11.60
2020,04,21,15,20,11.60
2020,04,21,15,21,11.60
2020,04,21,15,22,11.60
2020,04,21,15,23,11.60
2020,04,21,15,24,11.60
2020,04,21,15,25,11.60
2020,04,21,15,26,11.60
2020,04,21,15,27,11.60
2020,04,21,15,28,11.60
2020,04,21,15,29,11.60
2020,04,21,15,30,11.50
2020,04,21,15,31,11.50
2020,04,21,15,32,11.50
2020,04,21,15,33,11.40
2020,04,21,15,34,11.40
2020,04,21,15,35,11.40
2020,04,21,15,36,11.30
2020,04,21,15,37,11.30
2020,04,21,15,38,11.30
2020,04,21,15,39,11.30
2020,04,21,15,40,11.30
2020,04,21,15,41,11.20
2020,04,21,15,42,11.20
2020,04,21,15,43,11.20
2020,04,21,15,44,11.20
2020,04,21,15,45,11.10
2020,04,21,15,46,11.10
2020,04,21,15,47,11.10
2020,04,21,15,48,11.00
2020,04,21,15,49,11.00
2020,04,21,15,50,11.00
2020,04,21,15,51,11.00
2020,04,21,15,52,11.00
2020,04,21,15,53,11.00
2020,04,21,15,54,10.90
2020,04,21,15,55,10.90
2020,04,21,15,56,10.90
2020,04,21,15,57,10.90
2020,04,21,15,58,10.90
2020,04,21,15,59,10.90
2020,04,21,16,00,10.90
2020,04,21,16,01,10.90
2020,04,21,16,02,11.00
2020,04,21,16,03,11.00
2020,04,21,16,04,11.00
2020,04,21,16,05,10.90
2020,04,21,16,06,10.90
2020,04,21,16,07,10.90
2020,04,21,16,08,11.00
2020,04,21,16,09,11.00
2020,04,21,16,10,11.00
2020,04,21,16,11,11.00
2020,04,21,16,12,11.00
2020,04,21,16,13,11.00
2020,04,21,16,14,11.00
2020,04,21,16,15,11.00
2020,04,21,16,16,11.00
2020,04,21,16,17,11.00
2020,04,21,16,18,11.00
2020,04,21,16,19,11.00
2020,04,21,16,20,10.90
2020,04,21,16,21,10.70
2020,04,21,16,22,10.70
2020,04,21,16,23,10.70
2020,04,21,16,24,10.70
2020,04,21,16,25,10.70
2020,04,21,16,26,10.70
2020,04,21,16,27,10.70
2020,04,21,16,28,10.70
2020,04,21,16,29,10.70
2020,04,21,16,30,10.70
2020,04,21,16,31,10.70
2020,04,21,16,32,10.70
2020,04,21,16,33,10.70
2020,04,21,16,34,10.70
